Time,TemperatureF,DewpointF,PressureIn,WindDirection,WindDirectionDegrees,WindSpeedMPH,WindSpeedGustMPH,Humidity,HourlyPrecipIn,Conditions,Clouds,dailyrainin,SoftwareType,DateUTC
2013-02-26 00:00:00,28.0,26.0,30.30,SSE,157,0.0,0.0,94,0.00,,,0.02,Rainwise IP-100,2013-02-26 05:00:00,
2013-02-26 00:05:00,28.0,26.0,30.31,SSE,157,3.0,3.0,94,0.00,,,0.00,Rainwise IP-100,2013-02-26 05:05:00,
2013-02-26 00:10:00,28.0,26.0,30.31,SSE,157,3.0,5.0,94,0.00,,,0.00,Rainwise IP-100,2013-02-26 05:10:00,
2013-02-26 00:15:00,28.0,26.0,30.31,SSE,157,4.0,4.0,94,0.00,,,0.00,Rainwise IP-100,2013-02-26 05:15:00,
2013-02-26 00:20:00,28.0,26.0,30.31,SSE,157,3.0,6.0,94,0.00,,,0.00,Rainwise IP-100,2013-02-26 05:20:00,
2013-02-26 00:25:00,28.0,26.0,30.31,SSE,157,4.0,5.0,94,0.00,,,0.00,Rainwise IP-100,2013-02-26 05:25:00,
2013-02-26 00:30:00,28.0,26.0,30.31,SSE,157,3.0,5.0,94,0.00,,,0.00,Rainwise IP-100,2013-02-26 05:30:00,
2013-02-26 00:35:00,28.0,26.0,30.31,SSE,157,3.0,4.0,94,0.00,,,0.00,Rainwise IP-100,2013-02-26 05:35:00,
2013-02-26 00:40:00,28.0,26.0,30.31,SSE,157,2.0,3.0,94,0.00,,,0.00,Rainwise IP-100,2013-02-26 05:40:00,
2013-02-26 00:45:00,28.0,26.0,30.31,SSE,157,0.0,3.0,94,0.00,,,0.00,Rainwise IP-100,2013-02-26 05:45:00,
2013-02-26 00:50:00,28.0,26.0,30.31,SSE,157,0.0,1.0,94,0.00,,,0.00,Rainwise IP-100,2013-02-26 05:50:00,
2013-02-26 00:55:00,28.0,26.0,30.32,SSW,202,3.0,3.0,94,0.00,,,0.00,Rainwise IP-100,2013-02-26 05:55:00,
2013-02-26 01:00:00,28.0,26.0,30.32,SSW,202,3.0,5.0,94,0.00,,,0.00,Rainwise IP-100,2013-02-26 06:00:00,
2013-02-26 01:05:00,28.0,26.0,30.32,SSW,202,1.0,4.0,94,0.00,,,0.00,Rainwise IP-100,2013-02-26 06:05:00,
2013-02-26 01:10:00,28.0,26.0,30.32,SSW,202,2.0,3.0,94,0.00,,,0.00,Rainwise IP-100,2013-02-26 06:10:00,
2013-02-26 01:15:00,28.0,26.0,30.31,SSW,202,1.0,2.0,94,0.00,,,0.00,Rainwise IP-100,2013-02-26 06:15:00,
2013-02-26 01:20:00,27.0,26.0,30.31,South,180,2.0,4.0,94,0.00,,,0.00,Rainwise IP-100,2013-02-26 06:20:00,
2013-02-26 01:25:00,28.0,26.0,30.31,South,180,2.0,3.0,94,0.00,,,0.00,Rainwise IP-100,2013-02-26 06:25:00,
2013-02-26 01:30:00,28.0,26.0,30.31,South,180,1.0,3.0,94,0.00,,,0.00,Rainwise IP-100,2013-02-26 06:30:00,
2013-02-26 01:35:00,28.0,26.0,30.31,South,180,2.0,3.0,94,0.00,,,0.00,Rainwise IP-100,2013-02-26 06:35:00,
2013-02-26 01:40:00,28.0,26.0,30.31,South,180,3.0,3.0,94,0.00,,,0.00,Rainwise IP-100,2013-02-26 06:40:00,
2013-02-26 01:45:00,28.0,26.0,30.31,South,180,1.0,4.0,94,0.00,,,0.00,Rainwise IP-100,2013-02-26 06:45:00,
2013-02-26 01:50:00,28.0,26.0,30.31,South,180,1.0,2.0,94,0.00,,,0.00,Rainwise IP-100,2013-02-26 06:50:00,
2013-02-26 01:55:00,28.0,26.0,30.31,South,180,1.0,2.0,94,0.00,,,0.00,Rainwise IP-100,2013-02-26 06:55:00,
2013-02-26 02:00:00,28.0,26.0,30.31,South,180,1.0,3.0,94,0.00,,,0.00,Rainwise IP-100,2013-02-26 07:00:00,
2013-02-26 02:05:00,28.0,26.0,30.31,South,180,1.0,2.0,94,0.00,,,0.00,Rainwise IP-100,2013-02-26 07:05:00,
2013-02-26 02:10:00,28.0,26.0,30.31,South,180,2.0,3.0,94,0.00,,,0.00,Rainwise IP-100,2013-02-26 07:10:00,
2013-02-26 02:15:00,28.0,26.0,30.32,South,180,2.0,3.0,94,0.00,,,0.00,Rainwise IP-100,2013-02-26 07:15:00,
2013-02-26 02:20:00,28.0,26.0,30.32,South,180,2.0,3.0,94,0.00,,,0.00,Rainwise IP-100,2013-02-26 07:20:00,
2013-02-26 02:25:00,28.0,26.0,30.31,South,180,1.0,3.0,94,0.00,,,0.00,Rainwise IP-100,2013-02-26 07:25:00,
2013-02-26 02:30:00,27.0,26.0,30.31,South,180,1.0,2.0,94,0.00,,,0.00,Rainwise IP-100,2013-02-26 07:30:00,
2013-02-26 02:35:00,27.0,26.0,30.32,South,180,1.0,2.0,94,0.00,,,0.00,Rainwise IP-100,2013-02-26 07:35:00,
2013-02-26 02:40:00,28.0,26.0,30.32,South,180,3.0,4.0,94,0.00,,,0.00,Rainwise IP-100,2013-02-26 07:40:00,
2013-02-26 02:45:00,28.0,26.0,30.32,South,180,2.0,3.0,94,0.00,,,0.00,Rainwise IP-100,2013-02-26 07:45:00,
2013-02-26 02:50:00,28.0,26.0,30.32,South,180,0.0,3.0,94,0.00,,,0.00,Rainwise IP-100,2013-02-26 07:50:00,
2013-02-26 02:55:00,28.0,26.0,30.33,South,180,0.0,0.0,94,0.00,,,0.00,Rainwise IP-100,2013-02-26 07:55:00,
2013-02-26 03:00:00,28.0,26.0,30.33,South,180,2.0,2.0,94,0.00,,,0.00,Rainwise IP-100,2013-02-26 08:00:00,
2013-02-26 03:05:00,28.0,26.0,30.34,South,180,3.0,4.0,94,0.00,,,0.00,Rainwise IP-100,2013-02-26 08:05:00,
2013-02-26 03:10:00,28.0,26.0,30.34,South,180,4.0,4.0,94,0.00,,,0.00,Rainwise IP-100,2013-02-26 08:10:00,
2013-02-26 03:15:00,28.0,26.0,30.33,South,180,1.0,4.0,94,0.00,,,0.00,Rainwise IP-100,2013-02-26 08:15:00,
2013-02-26 03:20:00,27.0,26.0,30.33,South,180,3.0,3.0,94,0.00,,,0.00,Rainwise IP-100,2013-02-26 08:20:00,
2013-02-26 03:25:00,28.0,26.0,30.34,South,180,3.0,4.0,94,0.00,,,0.00,Rainwise IP-100,2013-02-26 08:25:00,
2013-02-26 03:30:00,28.0,26.0,30.34,South,180,2.0,4.0,94,0.00,,,0.00,Rainwise IP-100,2013-02-26 08:30:00,
2013-02-26 03:35:00,28.0,26.0,30.33,South,180,0.0,3.0,94,0.00,,,0.00,Rainwise IP-100,2013-02-26 08:35:00,
2013-02-26 03:40:00,28.0,26.0,30.33,South,180,0.0,2.0,94,0.00,,,0.00,Rainwise IP-100,2013-02-26 08:40:00,
2013-02-26 03:45:00,28.0,26.0,30.33,South,180,0.0,0.0,94,0.00,,,0.00,Rainwise IP-100,2013-02-26 08:45:00,
2013-02-26 03:50:00,27.0,26.0,30.33,South,180,0.0,0.0,94,0.00,,,0.00,Rainwise IP-100,2013-02-26 08:50:00,
2013-02-26 03:55:00,27.0,26.0,30.33,South,180,0.0,1.0,94,0.00,,,0.00,Rainwise IP-100,2013-02-26 08:55:00,
2013-02-26 04:00:00,27.0,26.0,30.33,South,180,1.0,1.0,94,0.00,,,0.00,Rainwise IP-100,2013-02-26 09:00:00,
2013-02-26 04:05:00,27.0,26.0,30.33,South,180,0.0,2.0,94,0.00,,,0.00,Rainwise IP-100,2013-02-26 09:05:00,
2013-02-26 04:10:00,27.0,26.0,30.33,South,180,0.0,0.0,94,0.00,,,0.00,Rainwise IP-100,2013-02-26 09:10:00,
2013-02-26 04:15:00,27.0,26.0,30.35,SW,225,3.0,4.0,94,0.00,,,0.00,Rainwise IP-100,2013-02-26 09:15:00,
2013-02-26 04:20:00,27.0,26.0,30.35,South,180,3.0,5.0,94,0.00,,,0.00,Rainwise IP-100,2013-02-26 09:20:00,
2013-02-26 04:25:00,27.0,26.0,30.34,SSE,157,5.0,6.0,94,0.00,,,0.00,Rainwise IP-100,2013-02-26 09:25:00,
2013-02-26 04:30:00,27.0,26.0,30.34,SE,135,3.0,6.0,94,0.00,,,0.00,Rainwise IP-100,2013-02-26 09:30:00,
2013-02-26 04:35:00,27.0,26.0,30.35,SE,135,4.0,5.0,94,0.00,,,0.00,Rainwise IP-100,2013-02-26 09:35:00,
2013-02-26 04:40:00,27.0,26.0,30.35,SE,135,4.0,5.0,94,0.00,,,0.00,Rainwise IP-100,2013-02-26 09:40:00,
2013-02-26 04:45:00,28.0,26.0,30.35,SE,135,4.0,5.0,94,0.00,,,0.00,Rainwise IP-100,2013-02-26 09:45:00,
2013-02-26 04:50:00,28.0,26.0,30.35,SE,135,2.0,5.0,94,0.00,,,0.00,Rainwise IP-100,2013-02-26 09:50:00,
2013-02-26 04:55:00,28.0,26.0,30.35,SSE,157,4.0,5.0,94,0.00,,,0.00,Rainwise IP-100,2013-02-26 09:55:00,
2013-02-26 04:58:00,28.0,26.0,30.35,SSE,157,3.0,4.0,94,0.00,,,0.00,Rainwise IP-100,2013-02-26 09:58:00,
2013-02-26 05:03:00,28.0,26.0,30.35,South,180,2.0,4.0,94,0.00,,,0.00,Rainwise IP-100,2013-02-26 10:03:00,
2013-02-26 05:08:00,27.0,26.0,30.36,South,180,3.0,3.0,94,0.00,,,0.00,Rainwise IP-100,2013-02-26 10:08:00,
2013-02-26 05:13:00,28.0,26.0,30.36,SSE,157,3.0,6.0,94,0.00,,,0.00,Rainwise IP-100,2013-02-26 10:13:00,
2013-02-26 05:18:00,28.0,26.0,30.35,SSE,157,2.0,5.0,94,0.00,,,0.00,Rainwise IP-100,2013-02-26 10:18:00,
2013-02-26 05:23:00,27.0,26.0,30.35,SSE,157,0.0,3.0,94,0.00,,,0.00,Rainwise IP-100,2013-02-26 10:23:00,
2013-02-26 05:28:00,27.0,26.0,30.36,SSE,157,0.0,2.0,94,0.00,,,0.00,Rainwise IP-100,2013-02-26 10:28:00,
2013-02-26 05:33:00,27.0,26.0,30.36,SSE,157,0.0,0.0,94,0.00,,,0.00,Rainwise IP-100,2013-02-26 10:33:00,
2013-02-26 05:38:00,27.0,26.0,30.36,SSE,157,0.0,0.0,94,0.00,,,0.00,Rainwise IP-100,2013-02-26 10:38:00,
2013-02-26 05:43:00,27.0,26.0,30.36,SSE,157,3.0,3.0,94,0.00,,,0.00,Rainwise IP-100,2013-02-26 10:43:00,
2013-02-26 05:48:00,27.0,26.0,30.36,SSE,157,2.0,5.0,94,0.00,,,0.00,Rainwise IP-100,2013-02-26 10:48:00,
2013-02-26 05:53:00,27.0,26.0,30.36,SSE,157,0.0,3.0,94,0.00,,,0.00,Rainwise IP-100,2013-02-26 10:53:00,
2013-02-26 05:58:00,27.0,26.0,30.36,SSE,157,0.0,1.0,94,0.00,,,0.00,Rainwise IP-100,2013-02-26 10:58:00,
2013-02-26 06:03:00,27.0,26.0,30.36,SSE,157,1.0,1.0,94,0.00,,,0.00,Rainwise IP-100,2013-02-26 11:03:00,
2013-02-26 06:08:00,27.0,26.0,30.36,SSE,157,1.0,2.0,94,0.00,,,0.00,Rainwise IP-100,2013-02-26 11:08:00,
2013-02-26 06:13:00,27.0,26.0,30.36,SSE,157,1.0,2.0,94,0.00,,,0.00,Rainwise IP-100,2013-02-26 11:13:00,
2013-02-26 06:18:00,27.0,26.0,30.36,SSE,157,0.0,1.0,94,0.00,,,0.00,Rainwise IP-100,2013-02-26 11:18:00,
2013-02-26 06:23:00,27.0,26.0,30.36,SSE,157,0.0,0.0,94,0.00,,,0.00,Rainwise IP-100,2013-02-26 11:23:00,
2013-02-26 06:28:00,27.0,26.0,30.37,SSE,157,0.0,0.0,94,0.00,,,0.00,Rainwise IP-100,2013-02-26 11:28:00,
2013-02-26 06:33:00,27.0,26.0,30.37,SSE,157,0.0,0.0,94,0.00,,,0.00,Rainwise IP-100,2013-02-26 11:33:00,
2013-02-26 06:38:00,27.0,26.0,30.37,SSE,157,1.0,2.0,94,0.00,,,0.00,Rainwise IP-100,2013-02-26 11:38:00,
2013-02-26 06:43:00,27.0,26.0,30.37,SSE,157,1.0,2.0,94,0.00,,,0.00,Rainwise IP-100,2013-02-26 11:43:00,
2013-02-26 06:48:00,27.0,26.0,30.37,SSE,157,2.0,2.0,94,0.00,,,0.00,Rainwise IP-100,2013-02-26 11:48:00,
2013-02-26 06:53:00,27.0,26.0,30.37,SSW,202,2.0,3.0,94,0.00,,,0.00,Rainwise IP-100,2013-02-26 11:53:00,
2013-02-26 06:58:00,27.0,26.0,30.38,SSW,202,0.0,3.0,94,0.00,,,0.00,Rainwise IP-100,2013-02-26 11:58:00,
2013-02-26 07:03:00,27.0,26.0,30.38,SSW,202,0.0,0.0,94,0.00,,,0.00,Rainwise IP-100,2013-02-26 12:03:00,
2013-02-26 07:08:00,27.0,26.0,30.37,SSW,202,0.0,0.0,94,0.00,,,0.00,Rainwise IP-100,2013-02-26 12:08:00,
2013-02-26 07:13:00,27.0,26.0,30.37,SSW,202,0.0,0.0,94,0.00,,,0.00,Rainwise IP-100,2013-02-26 12:13:00,
2013-02-26 07:18:00,27.0,26.0,30.38,SSW,202,0.0,0.0,94,0.00,,,0.00,Rainwise IP-100,2013-02-26 12:18:00,
2013-02-26 07:23:00,27.0,26.0,30.38,SSW,202,0.0,0.0,94,0.00,,,0.00,Rainwise IP-100,2013-02-26 12:23:00,
2013-02-26 07:28:00,27.0,26.0,30.38,SSW,202,0.0,0.0,94,0.00,,,0.00,Rainwise IP-100,2013-02-26 12:28:00,
2013-02-26 07:33:00,27.0,26.0,30.38,SSW,202,0.0,1.0,94,0.00,,,0.00,Rainwise IP-100,2013-02-26 12:33:00,
2013-02-26 07:38:00,27.0,26.0,30.38,SSW,202,0.0,0.0,94,0.00,,,0.00,Rainwise IP-100,2013-02-26 12:38:00,
2013-02-26 07:43:00,27.0,26.0,30.38,SSW,202,0.0,0.0,94,0.00,,,0.00,Rainwise IP-100,2013-02-26 12:43:00,
2013-02-26 07:48:00,27.0,26.0,30.38,SSW,202,0.0,0.0,94,0.00,,,0.00,Rainwise IP-100,2013-02-26 12:48:00,
2013-02-26 07:53:00,27.0,26.0,30.38,SSW,202,0.0,0.0,94,0.00,,,0.00,Rainwise IP-100,2013-02-26 12:53:00,
2013-02-26 07:58:00,28.0,26.0,30.37,SSW,202,0.0,0.0,94,0.00,,,0.00,Rainwise IP-100,2013-02-26 12:58:00,
2013-02-26 08:03:00,28.0,26.0,30.37,SSW,202,0.0,0.0,94,0.00,,,0.00,Rainwise IP-100,2013-02-26 13:03:00,
2013-02-26 08:08:00,28.0,26.0,30.37,SSW,202,0.0,0.0,94,0.00,,,0.00,Rainwise IP-100,2013-02-26 13:08:00,
2013-02-26 08:13:00,28.0,26.0,30.37,SSW,202,0.0,0.0,94,0.00,,,0.00,Rainwise IP-100,2013-02-26 13:13:00,
2013-02-26 08:18:00,28.0,26.0,30.38,SSW,202,0.0,0.0,94,0.00,,,0.00,Rainwise IP-100,2013-02-26 13:18:00,
2013-02-26 08:23:00,29.0,28.0,30.38,SSW,202,0.0,0.0,94,0.00,,,0.00,Rainwise IP-100,2013-02-26 13:23:00,
2013-02-26 08:28:00,29.0,28.0,30.37,SSW,202,2.0,2.0,94,0.00,,,0.00,Rainwise IP-100,2013-02-26 13:28:00,
2013-02-26 08:33:00,29.0,28.0,30.37,SSW,202,1.0,2.0,94,0.00,,,0.00,Rainwise IP-100,2013-02-26 13:33:00,
2013-02-26 08:38:00,29.0,28.0,30.38,SSW,202,0.0,1.0,94,0.00,,,0.00,Rainwise IP-100,2013-02-26 13:38:00,
2013-02-26 08:43:00,30.0,29.0,30.38,SSW,202,1.0,2.0,95,0.00,,,0.00,Rainwise IP-100,2013-02-26 13:43:00,
2013-02-26 08:48:00,30.0,29.0,30.38,SSW,202,0.0,1.0,95,0.00,,,0.00,Rainwise IP-100,2013-02-26 13:48:00,
2013-02-26 08:53:00,30.0,29.0,30.38,SSW,202,0.0,1.0,95,0.00,,,0.00,Rainwise IP-100,2013-02-26 13:53:00,
2013-02-26 08:58:00,31.0,29.0,30.38,SSW,202,0.0,0.0,95,0.00,,,0.00,Rainwise IP-100,2013-02-26 13:58:00,
2013-02-26 09:03:00,30.0,29.0,30.38,SSW,202,0.0,0.0,95,0.00,,,0.00,Rainwise IP-100,2013-02-26 14:03:00,
2013-02-26 09:08:00,30.0,29.0,30.38,SSW,202,0.0,0.0,95,0.00,,,0.00,Rainwise IP-100,2013-02-26 14:08:00,
2013-02-26 09:13:00,31.0,29.0,30.38,SSW,202,0.0,0.0,95,0.00,,,0.00,Rainwise IP-100,2013-02-26 14:13:00,
2013-02-26 09:18:00,31.0,29.0,30.38,SE,135,1.0,2.0,95,0.00,,,0.00,Rainwise IP-100,2013-02-26 14:18:00,
2013-02-26 09:23:00,32.0,31.0,30.38,SE,135,1.0,2.0,94,0.00,,,0.00,Rainwise IP-100,2013-02-26 14:23:00,
2013-02-26 09:28:00,32.0,31.0,30.39,SE,135,0.0,2.0,95,0.00,,,0.00,Rainwise IP-100,2013-02-26 14:28:00,
2013-02-26 09:33:00,33.0,31.0,30.39,SE,135,1.0,2.0,92,0.00,,,0.00,Rainwise IP-100,2013-02-26 14:33:00,
2013-02-26 09:38:00,33.0,31.0,30.38,ESE,112,2.0,3.0,89,0.00,,,0.00,Rainwise IP-100,2013-02-26 14:38:00,
2013-02-26 09:43:00,33.0,31.0,30.38,ESE,112,2.0,3.0,89,0.00,,,0.00,Rainwise IP-100,2013-02-26 14:43:00,
2013-02-26 09:48:00,33.0,31.0,30.38,ESE,112,3.0,4.0,88,0.00,,,0.00,Rainwise IP-100,2013-02-26 14:48:00,
2013-02-26 09:53:00,33.0,31.0,30.38,ESE,112,4.0,4.0,88,0.00,,,0.00,Rainwise IP-100,2013-02-26 14:53:00,
2013-02-26 09:58:00,33.0,31.0,30.38,ESE,112,4.0,5.0,88,0.00,,,0.00,Rainwise IP-100,2013-02-26 14:58:00,
2013-02-26 10:03:00,34.0,32.0,30.38,ESE,112,2.0,4.0,89,0.00,,,0.00,Rainwise IP-100,2013-02-26 15:03:00,
2013-02-26 10:08:00,34.0,32.0,30.38,ESE,112,4.0,4.0,88,0.00,,,0.00,Rainwise IP-100,2013-02-26 15:08:00,
2013-02-26 10:13:00,34.0,31.0,30.38,East,90,4.0,5.0,87,0.00,,,0.00,Rainwise IP-100,2013-02-26 15:13:00,
2013-02-26 10:18:00,34.0,31.0,30.37,East,90,4.0,6.0,86,0.00,,,0.00,Rainwise IP-100,2013-02-26 15:18:00,
2013-02-26 10:23:00,34.0,31.0,30.37,East,90,4.0,5.0,86,0.00,,,0.00,Rainwise IP-100,2013-02-26 15:23:00,
2013-02-26 10:28:00,34.0,31.0,30.37,East,90,4.0,5.0,85,0.00,,,0.00,Rainwise IP-100,2013-02-26 15:28:00,
2013-02-26 10:33:00,34.0,31.0,30.37,East,90,3.0,5.0,85,0.00,,,0.00,Rainwise IP-100,2013-02-26 15:33:00,
2013-02-26 10:38:00,36.0,31.0,30.35,East,90,0.0,5.0,82,0.00,,,0.00,Rainwise IP-100,2013-02-26 15:38:00,
2013-02-26 10:43:00,36.0,29.0,30.35,East,90,4.0,4.0,77,0.00,,,0.00,Rainwise IP-100,2013-02-26 15:43:00,
2013-02-26 10:48:00,36.0,31.0,30.35,ENE,67,1.0,5.0,80,0.00,,,0.00,Rainwise IP-100,2013-02-26 15:48:00,
2013-02-26 10:53:00,38.0,32.0,30.35,ENE,67,0.0,4.0,79,0.00,,,0.00,Rainwise IP-100,2013-02-26 15:53:00,
2013-02-26 10:58:00,39.0,32.0,30.34,ENE,67,0.0,1.0,74,0.00,,,0.00,Rainwise IP-100,2013-02-26 15:58:00,
2013-02-26 11:03:00,39.0,32.0,30.34,SW,225,1.0,5.0,75,0.00,,,0.00,Rainwise IP-100,2013-02-26 16:03:00,
2013-02-26 11:08:00,38.0,29.0,30.34,NNW,337,3.0,5.0,70,0.00,,,0.00,Rainwise IP-100,2013-02-26 16:08:00,
2013-02-26 11:13:00,38.0,31.0,30.34,North,360,6.0,6.0,72,0.00,,,0.00,Rainwise IP-100,2013-02-26 16:13:00,
2013-02-26 11:18:00,38.0,29.0,30.34,North,360,1.0,7.0,71,0.00,,,0.00,Rainwise IP-100,2013-02-26 16:18:00,
2013-02-26 11:23:00,38.0,29.0,30.34,NNE,22,2.0,6.0,71,0.00,,,0.00,Rainwise IP-100,2013-02-26 16:23:00,
2013-02-26 11:28:00,38.0,29.0,30.34,SE,135,6.0,7.0,69,0.00,,,0.00,Rainwise IP-100,2013-02-26 16:28:00,
2013-02-26 11:33:00,37.0,29.0,30.34,East,90,9.0,9.0,71,0.00,,,0.00,Rainwise IP-100,2013-02-26 16:33:00,
2013-02-26 11:38:00,37.0,28.0,30.35,SE,135,4.0,9.0,70,0.00,,,0.00,Rainwise IP-100,2013-02-26 16:38:00,
2013-02-26 11:43:00,36.0,26.0,30.35,SSW,202,7.0,12.0,69,0.00,,,0.00,Rainwise IP-100,2013-02-26 16:43:00,
2013-02-26 11:48:00,36.0,28.0,30.35,SSW,202,8.0,11.0,70,0.00,,,0.00,Rainwise IP-100,2013-02-26 16:48:00,
2013-02-26 11:53:00,36.0,28.0,30.35,SW,225,6.0,10.0,70,0.00,,,0.00,Rainwise IP-100,2013-02-26 16:53:00,
2013-02-26 11:58:00,36.0,29.0,30.34,SSW,202,6.0,9.0,74,0.00,,,0.00,Rainwise IP-100,2013-02-26 16:58:00,
2013-02-26 12:03:00,36.0,28.0,30.34,South,180,7.0,9.0,73,0.00,,,0.00,Rainwise IP-100,2013-02-26 17:03:00,
2013-02-26 12:08:00,37.0,29.0,30.34,SSE,157,8.0,10.0,71,0.00,,,0.00,Rainwise IP-100,2013-02-26 17:08:00,
2013-02-26 12:13:00,36.0,28.0,30.34,SSW,202,8.0,11.0,70,0.00,,,0.00,Rainwise IP-100,2013-02-26 17:13:00,
2013-02-26 12:18:00,37.0,28.0,30.33,SE,135,5.0,10.0,68,0.00,,,0.00,Rainwise IP-100,2013-02-26 17:18:00,
2013-02-26 12:24:00,36.0,28.0,30.33,SSE,157,6.0,13.0,71,0.00,,,0.00,Rainwise IP-100,2013-02-26 17:24:00,
2013-02-26 12:29:00,36.0,28.0,30.33,South,180,7.0,11.0,70,0.00,,,0.00,Rainwise IP-100,2013-02-26 17:29:00,
2013-02-26 12:34:00,36.0,28.0,30.33,SSW,202,6.0,15.0,73,0.00,,,0.00,Rainwise IP-100,2013-02-26 17:34:00,
2013-02-26 12:39:00,36.0,28.0,30.33,South,180,3.0,8.0,71,0.00,,,0.00,Rainwise IP-100,2013-02-26 17:39:00,
2013-02-26 12:44:00,37.0,28.0,30.33,ESE,112,9.0,9.0,70,0.00,,,0.00,Rainwise IP-100,2013-02-26 17:44:00,
2013-02-26 12:49:00,37.0,29.0,30.33,SW,225,8.0,12.0,71,0.00,,,0.00,Rainwise IP-100,2013-02-26 17:49:00,
2013-02-26 12:54:00,37.0,28.0,30.33,SW,225,8.0,12.0,70,0.00,,,0.00,Rainwise IP-100,2013-02-26 17:54:00,
2013-02-26 12:59:00,36.0,28.0,30.33,South,180,7.0,12.0,71,0.00,,,0.00,Rainwise IP-100,2013-02-26 17:59:00,
2013-02-26 13:04:00,37.0,29.0,30.33,SW,225,8.0,11.0,72,0.00,,,0.00,Rainwise IP-100,2013-02-26 18:04:00,
2013-02-26 13:09:00,37.0,29.0,30.33,SW,225,10.0,11.0,72,0.00,,,0.00,Rainwise IP-100,2013-02-26 18:09:00,
2013-02-26 13:14:00,37.0,29.0,30.33,SSE,157,5.0,11.0,74,0.00,,,0.00,Rainwise IP-100,2013-02-26 18:14:00,
2013-02-26 13:19:00,37.0,29.0,30.33,South,180,6.0,11.0,74,0.00,,,0.00,Rainwise IP-100,2013-02-26 18:19:00,
2013-02-26 13:24:00,37.0,29.0,30.33,SSE,157,7.0,12.0,71,0.00,,,0.00,Rainwise IP-100,2013-02-26 18:24:00,
2013-02-26 13:29:00,37.0,28.0,30.33,South,180,7.0,10.0,70,0.00,,,0.00,Rainwise IP-100,2013-02-26 18:29:00,
2013-02-26 13:34:00,37.0,28.0,30.33,WSW,247,8.0,12.0,70,0.00,,,0.00,Rainwise IP-100,2013-02-26 18:34:00,
2013-02-26 13:40:00,37.0,29.0,30.33,SSW,202,6.0,14.0,71,0.00,,,0.00,Rainwise IP-100,2013-02-26 18:40:00,
2013-02-26 13:45:00,37.0,28.0,30.33,SW,225,9.0,12.0,70,0.00,,,0.00,Rainwise IP-100,2013-02-26 18:45:00,
2013-02-26 13:50:00,37.0,28.0,30.33,SW,225,9.0,14.0,69,0.00,,,0.00,Rainwise IP-100,2013-02-26 18:50:00,
2013-02-26 13:55:00,37.0,29.0,30.33,South,180,2.0,14.0,71,0.00,,,0.00,Rainwise IP-100,2013-02-26 18:55:00,
2013-02-26 14:00:00,37.0,28.0,30.33,SSW,202,8.0,13.0,69,0.00,,,0.00,Rainwise IP-100,2013-02-26 19:00:00,
2013-02-26 14:05:00,37.0,28.0,30.33,SW,225,9.0,16.0,66,0.00,,,0.00,Rainwise IP-100,2013-02-26 19:05:00,
2013-02-26 14:10:00,37.0,28.0,30.33,SSE,157,11.0,12.0,69,0.00,,,0.00,Rainwise IP-100,2013-02-26 19:10:00,
2013-02-26 14:15:00,37.0,29.0,30.32,SSE,157,8.0,14.0,71,0.00,,,0.00,Rainwise IP-100,2013-02-26 19:15:00,
2013-02-26 14:20:00,37.0,29.0,30.32,South,180,6.0,13.0,71,0.00,,,0.00,Rainwise IP-100,2013-02-26 19:20:00,
2013-02-26 14:25:00,37.0,29.0,30.31,SE,135,7.0,17.0,71,0.00,,,0.00,Rainwise IP-100,2013-02-26 19:25:00,
2013-02-26 14:30:00,36.0,28.0,30.31,South,180,13.0,13.0,71,0.00,,,0.00,Rainwise IP-100,2013-02-26 19:30:00,
2013-02-26 14:35:00,36.0,28.0,30.30,SSE,157,10.0,16.0,73,0.00,,,0.00,Rainwise IP-100,2013-02-26 19:35:00,
2013-02-26 14:40:00,37.0,28.0,30.30,SE,135,9.0,17.0,70,0.00,,,0.00,Rainwise IP-100,2013-02-26 19:40:00,
2013-02-26 14:45:00,37.0,28.0,30.30,South,180,5.0,8.0,70,0.00,,,0.00,Rainwise IP-100,2013-02-26 19:45:00,
2013-02-26 14:50:00,37.0,28.0,30.30,South,180,5.0,6.0,70,0.00,,,0.00,Rainwise IP-100,2013-02-26 19:50:00,
2013-02-26 14:55:00,37.0,28.0,30.30,South,180,5.0,6.0,70,0.00,,,0.00,Rainwise IP-100,2013-02-26 19:55:00,
2013-02-26 15:00:00,38.0,28.0,30.29,SW,225,6.0,10.0,66,0.00,,,0.00,Rainwise IP-100,2013-02-26 20:00:00,
2013-02-26 15:05:00,38.0,28.0,30.28,SE,135,8.0,12.0,66,0.00,,,0.00,Rainwise IP-100,2013-02-26 20:05:00,
2013-02-26 15:10:00,38.0,28.0,30.28,SSE,157,9.0,14.0,66,0.00,,,0.00,Rainwise IP-100,2013-02-26 20:10:00,
2013-02-26 15:16:00,37.0,28.0,30.29,SE,135,8.0,12.0,67,0.00,,,0.00,Rainwise IP-100,2013-02-26 20:16:00,
2013-02-26 15:22:00,37.0,28.0,30.29,SE,135,0.0,8.0,69,0.00,,,0.00,Rainwise IP-100,2013-02-26 20:22:00,
2013-02-26 15:27:00,36.0,28.0,30.29,SSW,202,9.0,12.0,71,0.00,,,0.00,Rainwise IP-100,2013-02-26 20:27:00,
2013-02-26 15:32:00,36.0,28.0,30.29,SSW,202,6.0,11.0,72,0.00,,,0.00,Rainwise IP-100,2013-02-26 20:32:00,
2013-02-26 15:37:00,36.0,28.0,30.29,South,180,6.0,10.0,73,0.00,,,0.00,Rainwise IP-100,2013-02-26 20:37:00,
2013-02-26 15:42:00,36.0,28.0,30.29,South,180,8.0,13.0,73,0.00,,,0.00,Rainwise IP-100,2013-02-26 20:42:00,
2013-02-26 15:47:00,36.0,28.0,30.29,South,180,3.0,12.0,73,0.00,,,0.00,Rainwise IP-100,2013-02-26 20:47:00,
2013-02-26 15:52:00,36.0,28.0,30.29,SE,135,6.0,9.0,73,0.00,,,0.00,Rainwise IP-100,2013-02-26 20:52:00,
2013-02-26 15:57:00,36.0,29.0,30.28,SE,135,6.0,7.0,75,0.00,,,0.00,Rainwise IP-100,2013-02-26 20:57:00,
2013-02-26 16:02:00,36.0,29.0,30.28,SE,135,12.0,12.0,74,0.00,,,0.00,Rainwise IP-100,2013-02-26 21:02:00,
2013-02-26 16:07:00,36.0,29.0,30.28,South,180,8.0,13.0,76,0.00,,,0.00,Rainwise IP-100,2013-02-26 21:07:00,
2013-02-26 16:12:00,35.0,28.0,30.28,SSE,157,5.0,14.0,75,0.00,,,0.00,Rainwise IP-100,2013-02-26 21:12:00,
2013-02-26 16:17:00,35.0,28.0,30.28,SE,135,6.0,9.0,77,0.00,,,0.00,Rainwise IP-100,2013-02-26 21:17:00,
2013-02-26 16:22:00,35.0,29.0,30.28,SSE,157,6.0,9.0,78,0.00,,,0.00,Rainwise IP-100,2013-02-26 21:22:00,
2013-02-26 16:27:00,35.0,29.0,30.28,South,180,8.0,12.0,78,0.00,,,0.00,Rainwise IP-100,2013-02-26 21:27:00,
2013-02-26 16:32:00,35.0,29.0,30.28,South,180,6.0,10.0,79,0.00,,,0.00,Rainwise IP-100,2013-02-26 21:32:00,
2013-02-26 16:37:00,35.0,29.0,30.28,South,180,6.0,8.0,80,0.00,,,0.00,Rainwise IP-100,2013-02-26 21:37:00,
2013-02-26 16:42:00,35.0,29.0,30.28,South,180,10.0,13.0,80,0.00,,,0.00,Rainwise IP-100,2013-02-26 21:42:00,
2013-02-26 16:47:00,35.0,29.0,30.28,SE,135,10.0,10.0,79,0.00,,,0.00,Rainwise IP-100,2013-02-26 21:47:00,
2013-02-26 16:52:00,35.0,29.0,30.28,SE,135,7.0,10.0,80,0.00,,,0.00,Rainwise IP-100,2013-02-26 21:52:00,
2013-02-26 16:57:00,35.0,29.0,30.28,South,180,9.0,12.0,81,0.00,,,0.00,Rainwise IP-100,2013-02-26 21:57:00,
2013-02-26 17:02:00,35.0,29.0,30.28,SE,135,5.0,13.0,82,0.00,,,0.00,Rainwise IP-100,2013-02-26 22:02:00,
2013-02-26 17:07:00,35.0,29.0,30.28,SSW,202,8.0,12.0,81,0.00,,,0.00,Rainwise IP-100,2013-02-26 22:07:00,
2013-02-26 17:12:00,35.0,29.0,30.28,WSW,247,6.0,10.0,82,0.00,,,0.00,Rainwise IP-100,2013-02-26 22:12:00,
2013-02-26 17:17:00,35.0,29.0,30.28,South,180,12.0,12.0,81,0.00,,,0.00,Rainwise IP-100,2013-02-26 22:17:00,
2013-02-26 17:22:00,35.0,29.0,30.28,South,180,6.0,14.0,82,0.00,,,0.00,Rainwise IP-100,2013-02-26 22:22:00,
2013-02-26 17:27:00,35.0,29.0,30.27,SE,135,6.0,14.0,82,0.00,,,0.00,Rainwise IP-100,2013-02-26 22:27:00,
2013-02-26 17:32:00,35.0,31.0,30.27,South,180,7.0,12.0,83,0.00,,,0.00,Rainwise IP-100,2013-02-26 22:32:00,
2013-02-26 17:37:00,35.0,31.0,30.28,SE,135,5.0,10.0,83,0.00,,,0.00,Rainwise IP-100,2013-02-26 22:37:00,
2013-02-26 17:42:00,35.0,29.0,30.28,SE,135,7.0,12.0,82,0.00,,,0.00,Rainwise IP-100,2013-02-26 22:42:00,
2013-02-26 17:47:00,35.0,29.0,30.27,SSE,157,10.0,17.0,82,0.00,,,0.00,Rainwise IP-100,2013-02-26 22:47:00,
2013-02-26 17:52:00,35.0,31.0,30.27,SE,135,9.0,15.0,83,0.00,,,0.00,Rainwise IP-100,2013-02-26 22:52:00,
2013-02-26 17:57:00,35.0,31.0,30.28,SSW,202,2.0,13.0,84,0.00,,,0.00,Rainwise IP-100,2013-02-26 22:57:00,
2013-02-26 18:02:00,35.0,31.0,30.28,SSE,157,7.0,10.0,84,0.00,,,0.00,Rainwise IP-100,2013-02-26 23:02:00,
2013-02-26 18:07:00,35.0,31.0,30.28,South,180,6.0,13.0,84,0.00,,,0.00,Rainwise IP-100,2013-02-26 23:07:00,
2013-02-26 18:12:00,34.0,31.0,30.28,SSE,157,8.0,12.0,84,0.00,,,0.00,Rainwise IP-100,2013-02-26 23:12:00,
2013-02-26 18:17:00,34.0,31.0,30.27,SSE,157,6.0,13.0,84,0.00,,,0.00,Rainwise IP-100,2013-02-26 23:17:00,
2013-02-26 18:22:00,34.0,31.0,30.27,SE,135,6.0,12.0,84,0.00,,,0.00,Rainwise IP-100,2013-02-26 23:22:00,
2013-02-26 18:27:00,34.0,31.0,30.28,South,180,10.0,12.0,84,0.00,,,0.00,Rainwise IP-100,2013-02-26 23:27:00,
2013-02-26 18:32:00,34.0,31.0,30.28,South,180,8.0,11.0,85,0.00,,,0.00,Rainwise IP-100,2013-02-26 23:32:00,
2013-02-26 18:37:00,34.0,31.0,30.27,South,180,9.0,11.0,85,0.00,,,0.00,Rainwise IP-100,2013-02-26 23:37:00,
2013-02-26 18:42:00,34.0,31.0,30.27,SE,135,8.0,12.0,85,0.00,,,0.00,Rainwise IP-100,2013-02-26 23:42:00,
2013-02-26 18:47:00,34.0,31.0,30.27,SSW,202,11.0,13.0,84,0.00,,,0.00,Rainwise IP-100,2013-02-26 23:47:00,
2013-02-26 18:52:00,34.0,31.0,30.27,South,180,6.0,14.0,84,0.00,,,0.00,Rainwise IP-100,2013-02-26 23:52:00,
2013-02-26 18:57:00,34.0,31.0,30.27,ESE,112,0.0,9.0,85,0.00,,,0.00,Rainwise IP-100,2013-02-26 23:57:00,
2013-02-26 19:02:00,34.0,31.0,30.27,SSE,157,9.0,12.0,85,0.00,,,0.00,Rainwise IP-100,2013-02-27 00:02:00,
2013-02-26 19:07:00,34.0,31.0,30.27,SE,135,6.0,11.0,85,0.00,,,0.00,Rainwise IP-100,2013-02-27 00:07:00,
2013-02-26 19:12:00,34.0,31.0,30.27,SE,135,9.0,13.0,85,0.00,,,0.00,Rainwise IP-100,2013-02-27 00:12:00,
2013-02-26 19:17:00,34.0,31.0,30.27,South,180,10.0,13.0,85,0.00,,,0.00,Rainwise IP-100,2013-02-27 00:17:00,
2013-02-26 19:22:00,34.0,31.0,30.27,South,180,12.0,13.0,84,0.00,,,0.00,Rainwise IP-100,2013-02-27 00:22:00,
2013-02-26 19:27:00,34.0,31.0,30.27,South,180,10.0,14.0,85,0.00,,,0.00,Rainwise IP-100,2013-02-27 00:27:00,
2013-02-26 19:32:00,34.0,31.0,30.27,South,180,9.0,15.0,85,0.00,,,0.00,Rainwise IP-100,2013-02-27 00:32:00,
2013-02-26 19:37:00,34.0,31.0,30.27,SSE,157,9.0,20.0,85,0.00,,,0.00,Rainwise IP-100,2013-02-27 00:37:00,
2013-02-26 19:42:00,34.0,31.0,30.27,SE,135,12.0,15.0,85,0.00,,,0.00,Rainwise IP-100,2013-02-27 00:42:00,
2013-02-26 19:47:00,34.0,31.0,30.27,SW,225,7.0,15.0,85,0.00,,,0.00,Rainwise IP-100,2013-02-27 00:47:00,
2013-02-26 19:52:00,34.0,31.0,30.27,SSW,202,17.0,17.0,85,0.00,,,0.00,Rainwise IP-100,2013-02-27 00:52:00,
2013-02-26 19:57:00,34.0,31.0,30.28,South,180,10.0,19.0,85,0.00,,,0.00,Rainwise IP-100,2013-02-27 00:57:00,
2013-02-26 20:02:00,34.0,31.0,30.28,SSE,157,12.0,19.0,85,0.00,,,0.00,Rainwise IP-100,2013-02-27 01:02:00,
2013-02-26 20:07:00,34.0,31.0,30.28,SSW,202,5.0,18.0,86,0.00,,,0.00,Rainwise IP-100,2013-02-27 01:07:00,
2013-02-26 20:12:00,34.0,31.0,30.28,SSE,157,9.0,13.0,86,0.00,,,0.00,Rainwise IP-100,2013-02-27 01:12:00,
2013-02-26 20:17:00,34.0,31.0,30.28,South,180,7.0,13.0,86,0.00,,,0.00,Rainwise IP-100,2013-02-27 01:17:00,
2013-02-26 20:22:00,34.0,31.0,30.28,SE,135,7.0,12.0,86,0.00,,,0.00,Rainwise IP-100,2013-02-27 01:22:00,
2013-02-26 20:27:00,34.0,31.0,30.28,South,180,7.0,13.0,86,0.00,,,0.00,Rainwise IP-100,2013-02-27 01:27:00,
2013-02-26 20:32:00,34.0,31.0,30.28,South,180,7.0,13.0,86,0.00,,,0.00,Rainwise IP-100,2013-02-27 01:32:00,
2013-02-26 20:37:00,34.0,31.0,30.27,SE,135,7.0,15.0,85,0.00,,,0.00,Rainwise IP-100,2013-02-27 01:37:00,
2013-02-26 20:42:00,34.0,31.0,30.27,SW,225,5.0,12.0,86,0.00,,,0.00,Rainwise IP-100,2013-02-27 01:42:00,
2013-02-26 20:47:00,34.0,31.0,30.27,SW,225,1.0,9.0,87,0.00,,,0.00,Rainwise IP-100,2013-02-27 01:47:00,
2013-02-26 20:52:00,33.0,31.0,30.27,SSW,202,8.0,9.0,87,0.00,,,0.00,Rainwise IP-100,2013-02-27 01:52:00,
2013-02-26 20:57:00,33.0,29.0,30.27,SSW,202,9.0,15.0,86,0.00,,,0.00,Rainwise IP-100,2013-02-27 01:57:00,
2013-02-26 21:02:00,33.0,31.0,30.27,SSE,157,7.0,15.0,87,0.00,,,0.00,Rainwise IP-100,2013-02-27 02:02:00,
2013-02-26 21:07:00,33.0,29.0,30.26,South,180,6.0,14.0,86,0.00,,,0.00,Rainwise IP-100,2013-02-27 02:07:00,
2013-02-26 21:12:00,33.0,31.0,30.26,South,180,9.0,12.0,87,0.00,,,0.00,Rainwise IP-100,2013-02-27 02:12:00,
2013-02-26 21:17:00,33.0,31.0,30.26,SSE,157,8.0,12.0,87,0.00,,,0.00,Rainwise IP-100,2013-02-27 02:17:00,
2013-02-26 21:22:00,33.0,31.0,30.26,South,180,7.0,15.0,87,0.00,,,0.00,Rainwise IP-100,2013-02-27 02:22:00,
2013-02-26 21:27:00,33.0,31.0,30.26,SW,225,6.0,13.0,87,0.00,,,0.00,Rainwise IP-100,2013-02-27 02:27:00,
2013-02-26 21:32:00,33.0,29.0,30.26,ESE,112,7.0,17.0,86,0.00,,,0.00,Rainwise IP-100,2013-02-27 02:32:00,
2013-02-26 21:37:00,33.0,31.0,30.25,SE,135,7.0,13.0,87,0.00,,,0.00,Rainwise IP-100,2013-02-27 02:37:00,
2013-02-26 21:42:00,33.0,29.0,30.25,SSE,157,10.0,20.0,86,0.00,,,0.00,Rainwise IP-100,2013-02-27 02:42:00,
2013-02-26 21:47:00,33.0,29.0,30.25,SSE,157,10.0,15.0,86,0.00,,,0.00,Rainwise IP-100,2013-02-27 02:47:00,
2013-02-26 21:52:00,33.0,29.0,30.25,SSW,202,9.0,13.0,86,0.00,,,0.00,Rainwise IP-100,2013-02-27 02:52:00,
2013-02-26 21:57:00,33.0,29.0,30.25,SE,135,6.0,13.0,85,0.00,,,0.00,Rainwise IP-100,2013-02-27 02:57:00,
2013-02-26 22:02:00,33.0,29.0,30.25,SSE,157,6.0,16.0,85,0.00,,,0.00,Rainwise IP-100,2013-02-27 03:02:00,
2013-02-26 22:07:00,33.0,29.0,30.25,South,180,7.0,15.0,85,0.00,,,0.00,Rainwise IP-100,2013-02-27 03:07:00,
2013-02-26 22:12:00,33.0,29.0,30.25,SW,225,9.0,18.0,85,0.00,,,0.00,Rainwise IP-100,2013-02-27 03:12:00,
2013-02-26 22:17:00,33.0,29.0,30.24,SW,225,12.0,20.0,85,0.00,,,0.00,Rainwise IP-100,2013-02-27 03:17:00,
2013-02-26 22:22:00,33.0,29.0,30.24,SSW,202,11.0,15.0,85,0.00,,,0.00,Rainwise IP-100,2013-02-27 03:22:00,
2013-02-26 22:27:00,33.0,29.0,30.24,SSE,157,15.0,16.0,84,0.00,,,0.00,Rainwise IP-100,2013-02-27 03:27:00,
2013-02-26 22:32:00,32.0,28.0,30.24,SSW,202,8.0,16.0,85,0.00,,,0.00,Rainwise IP-100,2013-02-27 03:32:00,
2013-02-26 22:37:00,32.0,28.0,30.24,South,180,4.0,10.0,85,0.00,,,0.00,Rainwise IP-100,2013-02-27 03:37:00,
2013-02-26 22:42:00,32.0,28.0,30.24,West,270,4.0,10.0,85,0.00,,,0.00,Rainwise IP-100,2013-02-27 03:42:00,
2013-02-26 22:47:00,32.0,28.0,30.24,South,180,15.0,19.0,84,0.00,,,0.00,Rainwise IP-100,2013-02-27 03:47:00,
2013-02-26 22:52:00,32.0,28.0,30.24,South,180,9.0,18.0,85,0.00,,,0.00,Rainwise IP-100,2013-02-27 03:52:00,
2013-02-26 22:57:00,32.0,28.0,30.24,SSW,202,10.0,15.0,84,0.00,,,0.00,Rainwise IP-100,2013-02-27 03:57:00,
2013-02-26 23:02:00,32.0,28.0,30.24,SSW,202,5.0,17.0,85,0.00,,,0.00,Rainwise IP-100,2013-02-27 04:02:00,
2013-02-26 23:07:00,32.0,28.0,30.23,SSE,157,6.0,9.0,84,0.00,,,0.00,Rainwise IP-100,2013-02-27 04:07:00,
2013-02-26 23:12:00,32.0,28.0,30.23,SSW,202,4.0,9.0,84,0.00,,,0.00,Rainwise IP-100,2013-02-27 04:12:00,
2013-02-26 23:17:00,32.0,28.0,30.22,SSE,157,7.0,8.0,83,0.00,,,0.00,Rainwise IP-100,2013-02-27 04:17:00,
2013-02-26 23:22:00,32.0,28.0,30.22,SW,225,3.0,10.0,84,0.00,,,0.00,Rainwise IP-100,2013-02-27 04:22:00,
2013-02-26 23:27:00,32.0,28.0,30.21,South,180,5.0,8.0,83,0.00,,,0.00,Rainwise IP-100,2013-02-27 04:27:00,
2013-02-26 23:32:00,32.0,28.0,30.21,SW,225,8.0,13.0,84,0.00,,,0.00,Rainwise IP-100,2013-02-27 04:32:00,
2013-02-26 23:37:00,32.0,28.0,30.21,SW,225,13.0,13.0,84,0.00,,,0.00,Rainwise IP-100,2013-02-27 04:37:00,
2013-02-26 23:42:00,31.0,26.0,30.21,SW,225,2.0,15.0,84,0.00,,,0.00,Rainwise IP-100,2013-02-27 04:42:00,
2013-02-26 23:47:00,32.0,28.0,30.21,SW,225,7.0,15.0,84,0.00,,,0.00,Rainwise IP-100,2013-02-27 04:47:00,
2013-02-26 23:52:00,31.0,26.0,30.21,SW,225,7.0,12.0,84,0.00,,,0.00,Rainwise IP-100,2013-02-27 04:52:00,
2013-02-26 23:57:00,31.0,26.0,30.20,SSW,202,7.0,12.0,83,0.00,,,0.00,Rainwise IP-100,2013-02-27 04:57:00,